Tracking 19575 objects as of 20-Feb-2019
HD Live streaming from Space Station
objects crossing your sky now

RADUGA 1-5

Track RADUGA 1-5 now!
RADUGA 1-5 is classified as:


NORAD ID: 26477
Int'l Code: 2000-049A
Perigee: 35,764.1 km
Apogee: 35,811.7 km
Inclination: 12.3 °
Period: 1,435.8 minutes
Semi major axis: 42158 km
RCS: 10 m2 (large)
Launch date: August 28, 2000
Source: Commonwealth of Independent States (former USSR) (CIS)
Launch site: TYURATAM MISSILE AND SPACE COMPLEX (TTMTR)

Military communication.
aabbcc
Your satellite tracking list
Your tracking list is empty




NASA's NSSDC Master Catalog

Two Line Element Set (TLE):
1 26477U 00049A   19050.84267035 -.00000357  00000-0  00000+0 0  9994
2 26477  12.3299  27.9677 0005636 323.6775 205.4002  1.00292629 67675
Source of the keplerian elements: AFSPC